This demonstration page uses our WeatherBlox Daily Observations layout. Learn more.

Left ArrowRight Arrow

34.74481, -87.66753

Hourly Observations for June 30, 2018

Temp ( °F °C ) Dew Point ( °F °C ) Humidity (%) Winds ( mph kmh ) Pressure ( in mb ) Visibility ( mi km ) Precip ( " mm )
12:53 am 00:53 Clear 75 23.9 73 22.8 94 94 Calm 29.98 1015 10 16 0.00 0.00
1:53 am 01:53 Clear 75 23.9 72 22.2 90 90 Calm 29.98 1015 10 16 0.00 0.00
2:53 am 02:53 Clear with Mist and Fog 73 22.8 72 22.2 96 96 Calm 29.98 1015 5 8 0.00 0.00
2:56 am 02:56 Clear with Mist and Fog 73 22.8 72 22.2 96 96 Calm 29.97 1015 2 3 0.00 0.00
3:10 am 03:10 Clear with Mist and Fog 73 22.8 72 22.2 96 96 SSW 5 7 29.97 1015 3 5 0.00 0.00
3:18 am 03:18 Mostly Clear 74 23.3 72 22.2 94 94 Calm 29.97 1015 8 13 0.00 0.00
3:53 am 03:53 Clear 74 23.3 72 22.2 94 94 Calm 29.98 1015 7 11 0.00 0.00
4:53 am 04:53 Clear with Mist and Fog 73 22.8 71 21.7 94 94 Calm 29.99 1016 3 4 0.00 0.00
5:00 am 05:00 Clear with Mist and Fog 73 22.8 71 21.7 94 94 Calm 30.00 1016 5 8 0.00 0.00
5:12 am 05:12 Mostly Clear with Mist and Fog 73 22.8 71 21.7 94 94 Calm 30.00 1016 3 4 0.00 0.00
5:20 am 05:20 Mostly Clear with Mist and Fog 72 22.2 71 21.7 97 97 E 3 6 30.00 1016 1 2 0.00 0.00
5:25 am 05:25 Mostly Clear with Mist and Fog 72 22.2 71 21.7 97 97 Calm 30.00 1016 3 5 0.00 0.00
5:53 am 05:53 Sunny 73 22.8 72 22.2 96 96 Calm 30.02 1017 7 11 0.00 0.00
6:53 am 06:53 Sunny 77 25 74 23.3 90 90 Calm 30.04 1017 10 16 0.00 0.00
7:53 am 07:53 Mostly Sunny 80 26.7 76 24.4 87 87 ESE 5 7 30.05 1018 10 16 0.00 0.00
8:53 am 08:53 Mostly Sunny 83 28.3 74 23.3 74 74 Calm 30.04 1017 10 16 0.00 0.00
9:53 am 09:53 Mostly Sunny 86 30 74 23.3 67 67 SSE 3 6 30.04 1017 10 16 0.00 0.00
10:53 am 10:53 Mostly Cloudy 88 31.1 74 23.3 63 63 W 3 6 30.04 1017 10 16 0.00 0.00
11:53 am 11:53 Mostly Sunny 91 32.8 71 21.7 52 52 SE 5 7 30.03 1017 10 16 0.00 0.00
12:53 pm 12:53 Mostly Cloudy 89 31.7 72 22.2 57 57 Calm 30.01 1016 10 16 0.00 0.00
1:53 pm 13:53 Mostly Sunny 93 33.9 73 22.8 52 52 ENE 8 13 30.00 1016 10 16 0.00 0.00
2:53 pm 14:53 Sunny 94 34.4 69 20.6 44 44 undefined N/A 29.98 1015 10 16 0.00 0.00
3:53 pm 15:53 Sunny 94 34.4 69 20.6 44 44 VRB 7 11 29.97 1015 10 16 0.00 0.00
4:53 pm 16:53 Sunny 94 34.4 67 19.4 41 41 VRB 6 9 29.96 1015 10 16 0.00 0.00
5:53 pm 17:53 Sunny 93 33.9 69 20.6 46 46 E 6 9 29.95 1014 10 16 0.00 0.00
6:53 pm 18:53 Sunny 92 33.3 70 21.1 49 49 Calm 29.96 1015 10 16 0.00 0.00
7:53 pm 19:53 Sunny 87 30.6 76 24.4 70 70 Calm 29.96 1015 10 16 0.00 0.00
8:53 pm 20:53 Clear 83 28.3 76 24.4 79 79 Calm 29.97 1015 10 16 0.00 0.00
9:53 pm 21:53 Clear 81 27.2 76 24.4 85 85 SE 3 6 29.98 1015 10 16 0.00 0.00
10:53 pm 22:53 Clear 80 26.7 75 23.9 85 85 SE 5 7 29.98 1015 10 16 0.00 0.00
11:53 pm 23:53 Clear 80 26.7 75 23.9 85 85 SE 6 9 29.96 1015 10 16 0.00 0.00

Powered by AerisWeather